Home > Weather > Karachi > Past weeks

Flag for Pakistan Weather for the Past 2 Weeks in Karachi, Sindh, Pakistan

Now
64 °F

Clear.


Feels Like: 64 °F
Forecast: 58 / 79 °F
Wind: No wind

Location: Karachi Airport

Current Time: Feb 15, 2016 at 12:47:38 AM

Latest Report: Feb 14, 2016 at 11:55 PM


Visibility: 4 mi

Pressure: 30.09 "Hg

Humidity: 40%

Dew point: 39 °F

Location of KarachiLocation

Historic Weather in Karachi — Graph

°F

Karachi Temperature Yesterday

Maximum temperature yesterday: 79 °F (at 1:25 PM)
Minimum temperature yesterday: 55 °F (at 7:25 AM)
Average temperature yesterday: 68 °F

High & Low Weather Summary for the Past Weeks

 TemperatureHumidityPressure
High86 °F (Feb 7, 2:55 PM)88% (Jan 31, 5:55 AM)30.15 "Hg (Jan 31, 5:55 AM)
Low54 °F (Feb 4, 6:25 AM)7% (Feb 11, 2:55 PM)29.83 "Hg (Feb 10, 4:25 PM)
Average70 °F39%29.99 "Hg
* Reported Jan 30 11:25 PM — Feb 14 11:24 PM, Karachi, Weather by CustomWeather, © 2016

Note: Actual official high and low records may vary slightly from our data, if they occured in-between our weather recording intervals... More about our weather records

Advertising

Karachi Weather History for the Previous 24 Hours

 ConditionsComfort  
Time TempWeatherWind HumidityBarometerVisibility
11:24 PM
Sun, Feb 14
64 °FClear.3 mph40%30.09 "Hg4 mi
10:25 PM64 °FClear.8 mph40%30.09 "Hg4 mi
9:55 PM66 °FClear.No wind40%30.07 "Hg4 mi
9:25 PM68 °FClear.No wind38%30.07 "Hg4 mi
9:00 PM70 °FClear.No wind38%30.07 "Hg4 mi
8:30 PM72 °FClear.3 mph33%30.07 "Hg4 mi
8:00 PM72 °FClear.8 mph33%30.04 "Hg4 mi
7:30 PM72 °FClear.7 mph29%30.04 "Hg4 mi
7:00 PM73 °FClear.7 mph27%30.04 "Hg4 mi
6:30 PM73 °FClear.6 mph27%30.04 "Hg4 mi
6:00 PM75 °FClear.7 mph25%30.01 "Hg4 mi
5:25 PM77 °FClear.6 mph22%30.01 "Hg4 mi
4:55 PM77 °FClear.8 mph21%30.01 "Hg4 mi
4:25 PM77 °FClear.3 mph21%30.01 "Hg4 mi
3:55 PM79 °FClear.5 mph15%30.01 "Hg4 mi
2:55 PM79 °FClear.9 mph15%30.01 "Hg4 mi
2:25 PM79 °FClear.10 mph16%30.04 "Hg4 mi
1:55 PM79 °FClear.6 mph15%30.04 "Hg4 mi
1:25 PM79 °FClear.10 mph17%30.07 "Hg4 mi
12:55 PM77 °FClear.7 mph18%30.07 "Hg4 mi
12:25 PM77 °FClear.6 mph19%30.09 "Hg4 mi
11:55 AM75 °FClear.7 mph21%30.09 "Hg4 mi
11:25 AM75 °FHaze.8 mph18%30.12 "Hg3 mi
10:55 AM73 °FHaze.9 mph20%30.12 "Hg3 mi
10:25 AM72 °FHaze.9 mph22%30.12 "Hg3 mi
9:55 AM70 °FHaze.12 mph25%30.12 "Hg3 mi
9:25 AM66 °FHaze.5 mph30%30.12 "Hg3 mi
8:55 AM63 °FHaze.6 mph32%30.12 "Hg3 mi
8:25 AM59 °FHaze.7 mph36%30.09 "Hg3 mi
7:55 AM57 °FHaze.7 mph39%30.09 "Hg3 mi
7:25 AM55 °FHaze.8 mph44%30.07 "Hg3 mi
6:55 AM57 °FClear.7 mph39%30.07 "Hg3 mi
6:25 AM57 °FClear.7 mph39%30.07 "Hg4 mi
5:55 AM57 °FClear.5 mph39%30.04 "Hg4 mi
5:25 AM57 °FClear.7 mph39%30.04 "Hg4 mi
4:55 AM57 °FClear.7 mph41%30.04 "Hg4 mi
4:25 AM57 °FClear.6 mph41%30.01 "Hg4 mi
3:55 AM59 °FClear.10 mph39%30.01 "Hg4 mi
3:25 AM61 °FHaze.9 mph36%30.01 "Hg3 mi
2:25 AM63 °FHaze.No wind34%30.04 "Hg3 mi
1:55 AM63 °FHaze.No wind34%30.04 "Hg3 mi
1:25 AM63 °FHaze.No wind34%30.04 "Hg3 mi
12:55 AM63 °FHaze.6 mph37%30.04 "Hg3 mi
12:25 AM64 °FHaze.8 mph34%30.07 "Hg3 mi
Weather by CustomWeather, © 2016

See weather overviewHow to use our weather pages